Wind_Speed
8 8 6 5 5 6 5 5 5 7 8 9 9 8 8 12 15 18 21 22 20 14 8 6 6 8 9 10 10 10 11 11 11 10 10 11 12 13 14 15 16 17 17 18 18 18 18 17 18 19 22 24 25 27 27 25 23 23 23 25 25 25 23 16 14 15 14 16 18 15 15 19 23 22 24 33 41 47 54 61 64 58 56 59 57
7 6 5 4 3 3 3 5 7 8 9 9 8 10 12 14 16 17 19 18 14 8 6 6 7 8 9 9 9 10 10 10 9 9 9 10 11 13 14 15 16 17 18 19 20 21 21 20 19 19 21 23 24 26 27 26 23 22 23 25 25 25 24 17 14 15 16 18 20 19 18 19 19 20 25 32 38 45 50 56 63 62 58 60 64
5 4 3 2 2 2 4 6 9 10 11 10 10 12 13 14 14 14 13 10 7 5 6 7 8 8 9 9 9 9 9 9 8 8 9 10 11 13 14 15 17 18 18 19 21 23 24 24 22 20 20 22 24 25 27 26 24 23 23 24 25 25 24 18 14 15 17 18 21 22 22 22 21 20 24 30 36 43 48 52 58 63 62 59 60
3 1 1 1 2 4 5 7 8 9 9 9 11 12 12 11 10 8 6 5 5 5 6 7 7 8 8 8 8 9 9 9 8 8 9 9 11 13 15 16 17 19 19 19 21 23 25 25 23 21 19 21 23 25 27 27 24 23 23 24 25 25 24 20 16 15 16 18 20 23 23 23 23 23 25 29 34 40 45 49 53 57 61 61 60
4 2 1 0 1 3 4 5 6 7 9 10 10 10 8 6 6 5 5 5 6 7 7 7 7 7 7 7 8 9 8 8 7 7 8 8 10 13 14 15 17 18 19 20 21 23 24 24 25 23 19 19 21 24 27 27 25 23 23 23 24 25 23 21 16 15 16 17 20 22 23 24 24 25 26 28 32 36 41 46 50 52 55 58 58
8 6 5 3 2 2 3 4 5 7 8 8 7 6 5 5 5 5 6 6 6 6 7 7 7 7 7 7 9 9 7 7 7 7 8 8 10 11 13 15 16 18 19 20 21 23 25 26 27 25 21 19 20 23 27 28 25 23 22 23 24 24 22 21 17 15 15 16 18 21 22 24 25 26 27 28 30 33 37 41 46 49 51 53 53
12 11 9 7 6 5 4 4 5 5 4 4 5 5 5 4 5 6 6 6 6 7 8 8 7 7 7 8 9 8 7 7 8 8 8 8 10 11 13 15 15 18 21 20 21 24 27 27 28 27 23 20 20 24 27 28 26 23 22 22 23 24 22 21 19 15 14 15 16 19 21 23 24 26 27 28 29 31 33 36 40 44 46 49 49
15 15 14 12 11 9 8 7 6 5 5 5 6 6 5 5 6 7 7 7 8 9 9 8 8 8 8 9 8 7 7 8 8 8 8 8 10 11 13 14 16 20 22 22 23 24 27 27 28 28 25 22 22 24 27 27 26 24 22 22 23 23 21 21 19 16 14 14 15 17 20 22 23 24 26 26 27 29 30 32 35 38 40 43 44
17 16 15 14 12 11 10 9 8 7 7 7 8 8 7 8 8 9 9 9 10 10 9 8 8 8 9 9 7 7 7 8 7 8 9 10 10 12 13 15 17 21 21 23 25 25 26 27 28 30 27 24 24 26 27 26 25 24 22 22 23 23 21 21 20 17 15 14 14 16 18 20 21 22 24 25 25 27 29 30 31 33 35 37 39
17 16 14 14 13 12 11 10 10 9 9 10 10 10 10 10 11 11 11 10 10 10 10 9 9 9 10 9 8 7 7 7 9 10 11 11 12 12 14 15 17 19 21 22 25 24 24 27 29 30 28 26 27 29 29 26 24 23 23 23 23 22 22 22 20 18 16 14 13 15 17 17 19 20 21 22 23 25 26 28 29 30 32 33 34
15 14 13 13 12 12 12 12 11 10 11 11 10 10 10 10 11 11 11 11 11 11 11 11 11 11 11 10 9 8 8 9 11 12 13 13 13 13 15 16 16 18 21 21 22 23 24 28 30 28 27 27 28 31 30 26 24 24 23 23 23 22 22 22 20 19 17 15 13 14 15 16 17 18 19 20 21 23 24 25 27 27 29 30 30
15 13 12 12 12 12 12 12 12 11 11 11 11 11 11 11 10 11 11 11 11 11 12 12 12 12 11 11 11 11 11 11 13 14 15 15 15 15 16 17 16 16 19 20 21 22 25 28 28 25 25 27 28 30 30 27 25 25 24 24 23 22 23 22 20 20 18 15 13 13 14 14 15 17 18 18 19 20 22 24 25 25 26 27 27
15 14 12 12 12 12 12 12 12 12 12 12 12 12 12 12 12 11 11 12 12 12 12 12 12 13 12 11 11 12 12 13 14 15 15 15 14 15 15 16 16 16 17 19 20 22 25 28 27 24 24 26 27 29 29 28 27 26 25 24 23 22 23 22 20 20 19 16 13 13 13 13 14 15 17 18 18 18 20 21 22 23 24 24 24
15 14 13 12 12 12 12 13 13 14 14 14 15 14 14 14 14 13 12 12 13 13 13 13 13 13 12 11 11 12 13 14 14 14 13 13 13 13 13 14 14 15 16 19 22 23 25 27 27 27 26 26 27 28 29 28 27 26 25 24 23 22 22 21 20 20 19 17 14 12 12 13 14 15 16 17 18 18 18 19 20 21 22 22 22
15 15 15 14 13 13 14 15 15 16 16 16 16 17 17 17 16 14 14 14 14 13 13 14 14 13 12 11 11 11 12 13 12 12 13 13 12 12 12 13 13 14 16 20 23 25 27 27 28 28 27 26 26 27 28 27 26 26 25 24 22 22 21 20 20 20 19 17 15 13 12 12 14 15 16 17 18 18 18 18 19 19 20 21 21
17 17 17 17 17 17 16 17 17 17 17 17 18 18 19 18 17 16 15 15 14 14 13 14 13 13 12 12 11 10 11 12 11 11 12 14 14 12 12 14 15 17 19 20 22 25 28 28 28 28 27 26 26 27 27 27 26 25 24 24 22 22 21 20 20 20 19 18 15 14 12 12 14 15 16 17 17 18 18 18 19 19 19 20 21
20 20 19 20 20 20 20 19 18 19 19 19 19 19 20 20 19 18 17 16 15 14 13 13 12 12 11 10 10 10 11 13 12 12 12 14 15 14 14 16 17 19 20 20 21 25 28 28 28 28 26 26 27 27 27 26 26 25 24 24 23 22 21 20 20 20 19 18 16 14 13 13 14 15 16 16 16 17 18 18 19 19 19 19 20
22 22 21 21 22 22 21 20 19 20 20 21 21 21 21 21 20 19 18 16 15 14 13 12 11 11 10 9 9 9 10 12 14 14 13 15 16 16 19 20 19 19 19 21 24 25 27 27 27 28 27 27 28 27 26 26 25 24 24 24 23 23 22 21 21 21 20 18 17 15 14 13 13 15 15 16 16 16 17 17 18 18 18 18 18
24 23 22 22 22 21 21 20 21 21 22 22 22 23 23 23 22 20 19 18 16 15 14 12 11 11 11 10 11 11 11 13 15 15 15 17 17 18 22 24 22 20 19 22 25 26 26 27 27 28 28 28 28 27 26 25 24 24 24 24 24 24 23 23 22 22 21 20 18 16 15 13 13 14 15 15 15 15 15 16 16 17 17 17 16
23 23 22 22 21 21 20 20 21 22 23 23 23 23 23 23 22 21 21 20 18 17 16 14 13 13 12 12 13 15 16 16 16 15 15 16 17 18 21 23 23 22 22 23 24 25 26 27 28 28 29 28 28 28 26 26 25 24 24 25 25 25 25 25 24 24 23 22 20 18 16 14 13 13 14 15 15 15 15 15 15 15 15 15 15
23 22 22 22 21 20 20 20 21 22 23 23 23 23 23 23 23 22 22 21 20 19 18 17 16 15 15 14 14 16 17 17 16 16 15 16 18 20 20 21 21 22 26 28 27 26 27 28 30 30 30 30 30 29 28 28 27 26 26 26 26 27 27 27 27 26 26 24 23 21 19 16 14 12 12 13 14 14 14 14 14 14 14 14 13
22 22 21 21 21 20 20 20 21 22 23 23 23 23 23 23 23 22 22 21 20 19 19 18 18 18 18 18 18 18 18 17 17 17 16 16 18 21 22 22 21 23 27 30 29 29 31 32 34 34 34 34 33 32 31 30 29 28 28 28 27 28 28 28 28 28 28 27 25 23 21 19 16 13 11 11 11 12 13 13 13 13 14 14 14
21 21 21 20 20 20 21 21 22 22 22 23 23 23 23 23 23 23 23 21 20 19 18 18 18 18 19 20 20 19 18 18 18 17 16 15 16 19 23 24 24 26 29 30 30 32 34 36 38 38 39 38 38 37 36 35 34 33 32 31 30 30 29 30 30 30 30 29 27 26 24 22 19 16 13 11 10 10 10 11 11 12 12 13 14
19 20 20 20 20 20 20 21 22 22 22 22 23 23 23 23 23 23 23 22 21 19 18 17 17 17 17 18 18 18 18 17 17 16 15 14 14 16 21 23 25 28 31 32 34 36 37 39 40 42 43 44 44 43 43 42 41 40 38 36 35 34 32 32 32 32 31 30 29 28 26 24 21 19 16 14 12 11 11 11 11 11 11 12 13
19 18 18 19 19 19 20 21 21 22 21 22 23 23 23 24 25 25 24 23 22 21 20 19 18 17 17 17 17 18 19 19 17 16 15 15 15 17 19 22 24 28 31 34 36 38 40 41 43 45 47 49 50 50 50 50 49 48 46 44 42 40 38 36 35 34 33 32 32 30 29 27 24 22 19 18 16 15 14 13 13 12 12 12 12
19 18 17 17 18 18 18 19 20 21 21 22 22 22 23 24 26 26 25 24 23 22 22 22 20 19 18 17 17 19 22 22 21 21 21 21 22 22 23 24 27 30 32 34 35 38 41 43 45 47 49 51 53 54 55 55 55 55 54 53 52 50 47 45 42 40 38 36 35 33 32 30 28 26 24 22 20 19 18 17 16 15 14 14 13
19 18 17 16 16 16 17 17 19 20 21 21 21 21 22 23 25 27 27 26 25 24 25 24 23 22 21 20 20 22 24 25 26 27 28 27 27 26 26 27 29 30 32 33 34 35 37 40 43 45 47 49 51 52 54 55 56 58 58 58 58 57 56 54 52 50 47 45 42 40 38 35 33 31 29 28 26 25 23 21 20 19 18 17 16
19 18 18 17 15 15 15 15 16 17 19 20 20 20 21 22 24 26 27 28 27 27 26 25 25 25 25 25 25 25 26 26 28 29 30 30 29 29 28 29 29 29 30 31 31 32 33 35 38 41 43 45 47 49 51 52 54 55 56 57 58 58 58 59 58 57 56 55 53 50 47 44 42 39 37 35 33 31 30 28 26 25 23 22 21
19 18 18 17 17 15 15 15 15 15 16 17 19 19 19 21 22 24 26 27 28 27 26 25 24 24 25 25 26 26 26 26 27 28 28 28 29 30 30 30 29 29 29 29 30 32 32 32 33 36 38 41 43 45 47 49 51 52 53 54 55 55 56 57 58 58 58 58 58 57 56 54 52 50 47 45 42 40 38 36 34 32 31 29 27
17 18 18 18 18 17 16 15 15 15 15 15 17 18 19 19 20 21 23 25 26 26 26 24 23 23 23 24 25 26 26 26 26 25 25 26 27 27 27 28 28 28 28 28 29 31 31 31 31 33 35 37 40 42 44 46 48 49 50 51 52 52 53 54 55 55 56 57 57 57 57 57 56 56 55 54 52 50 48 46 44 42 40 38 36
15 16 17 17 17 18 17 16 16 16 15 15 15 17 18 18 19 20 20 22 24 25 25 24 24 25 25 25 25 25 25 25 25 24 23 22 23 23 24 24 25 26 27 27 27 28 29 29 30 31 32 34 36 38 41 42 44 45 47 47 48 49 50 51 52 52 54 54 54 54 54 55 55 55 55 55 55 55 54 53 52 50 48 47 45
13 14 15 15 15 16 17 17 17 17 16 16 15 15 16 17 18 18 19 19 21 22 23 23 23 24 25 25 25 24 24 23 22 21 19 18 19 21 21 21 22 24 25 25 26 26 27 27 28 29 30 31 33 35 37 38 40 41 42 43 44 45 46 46 47 48 49 50 51 51 51 52 53 53 53 53 53 53 53 53 53 53 52 51 50
11 12 13 13 13 13 15 15 16 17 17 17 16 16 16 16 16 16 17 17 18 18 19 19 19 19 20 20 20 19 18 16 16 16 17 17 17 19 20 19 20 21 22 23 25 25 25 25 25 25 27 29 31 32 33 34 36 36 37 38 39 39 40 41 43 43 44 45 45 46 47 48 48 49 50 50 51 51 51 51 51 51 50 50 50
9 10 11 12 12 11 12 13 14 14 15 16 16 16 16 16 16 16 16 16 16 15 16 16 16 15 15 15 15 14 13 12 14 16 17 16 16 17 18 18 17 18 19 21 22 22 22 22 22 22 23 25 27 28 29 30 31 32 33 33 34 35 35 36 38 39 39 40 40 41 42 42 43 44 45 46 47 47 48 48 48 48 47 47 47
8 8 9 10 11 11 11 11 12 12 13 14 14 15 16 16 16 16 15 15 14 14 13 13 14 14 14 13 12 12 12 12 13 15 15 14 14 15 16 15 15 15 17 18 18 19 19 20 20 20 20 22 22 23 24 25 26 28 29 29 30 31 31 32 33 34 35 36 36 37 37 38 39 39 40 41 41 42 43 43 44 44 44 44 44
8 8 8 8 9 10 10 10 11 11 10 11 12 13 14 15 15 16 15 15 14 13 12 11 11 12 12 12 12 11 11 11 11 11 11 11 11 11 11 12 12 13 15 15 15 15 16 16 17 17 17 18 19 19 20 21 22 23 24 24 25 26 27 28 29 29 30 31 31 32 33 34 34 35 36 36 37 37 38 38 39 39 39 40 40
9 9 9 8 8 8 9 10 10 10 9 9 10 11 12 12 14 14 15 15 14 13 12 10 10 9 9 10 10 10 9 8 8 7 7 7 7 7 8 8 10 11 12 12 12 12 12 13 13 13 14 14 15 16 17 17 19 19 20 21 21 21 22 23 24 25 25 26 27 28 28 29 30 30 31 32 32 33 33 34 34 35 35 35 36
12 10 10 10 9 8 8 9 9 9 9 9 9 9 10 10 12 12 13 13 14 14 13 11 9 8 7 7 7 7 7 7 6 5 4 4 4 5 6 8 9 9 10 10 9 9 9 9 9 10 11 11 12 13 14 14 16 16 17 18 19 19 19 19 20 20 21 22 23 24 24 25 25 26 27 27 28 28 29 30 30 31 31 31 32
15 13 12 12 11 10 9 9 9 9 9 9 9 9 9 9 10 11 11 11 11 12 13 12 10 9 7 6 5 5 5 4 4 4 3 3 3 4 5 7 8 8 8 8 7 7 7 7 7 7 7 8 9 10 11 11 12 13 14 15 16 16 16 16 17 17 18 19 19 20 21 21 22 22 23 23 24 24 25 25 26 26 27 27 28
19 18 16 15 14 13 12 12 11 10 9 10 10 10 11 11 10 10 10 10 10 10 10 10 10 9 8 7 5 4 3 3 2 2 2 2 1 1 3 4 5 6 6 6 6 5 5 4 4 4 4 5 6 6 7 8 9 10 11 12 13 13 13 14 14 14 15 15 16 17 17 18 18 19 19 20 20 20 21 21 22 22 23 23 23
21 21 21 20 18 17 16 15 14 12 10 10 10 10 11 11 11 11 10 10 10 9 9 9 8 8 7 7 6 5 4 4 3 3 3 3 3 3 3 4 5 5 6 5 4 4 3 2 2 1 2 2 3 4 5 6 6 7 8 9 10 10 11 11 12 12 12 13 13 13 14 14 15 15 16 16 17 17 17 17 18 18 19 19 19
23 23 24 24 23 22 21 19 17 15 13 11 11 11 12 12 12 11 11 11 11 10 10 10 9 8 7 5 5 6 6 6 5 5 5 5 5 5 6 6 7 7 7 6 5 5 5 4 3 3 2 2 3 3 4 5 6 6 7 8 8 9 9 10 10 10 11 11 12 12 12 12 12 13 13 14 14 15 15 15 15 15 15 15 15
29 27 27 26 25 26 26 25 22 19 16 14 13 13 13 14 14 14 13 13 12 12 12 12 12 11 10 7 7 8 8 7 6 6 7 8 8 7 8 8 9 9 9 8 8 8 8 8 8 8 7 7 7 6 6 6 6 7 7 8 9 9 10 10 10 10 10 11 11 11 11 11 11 11 12 13 13 13 13 13 13 13 13 13 12
33 32 31 29 28 28 29 30 28 23 20 19 16 15 15 14 15 16 16 15 15 14 14 15 14 13 12 11 10 9 8 7 6 8 9 9 9 9 9 10 10 10 10 10 10 11 11 11 11 12 12 12 11 11 10 10 10 10 10 10 10 11 11 12 12 12 12 12 11 11 11 11 11 11 11 11 12 12 12 12 11 11 11 11 11
34 34 33 31 31 30 30 31 31 28 24 23 22 19 18 17 16 17 18 18 18 17 17 18 16 15 15 14 13 12 11 9 8 9 10 9 8 9 10 12 12 12 12 12 12 12 13 14 14 14 14 14 15 15 14 14 14 15 15 14 14 14 14 15 15 15 15 14 14 14 14 13 12 12 12 12 12 12 12 11 11 11 10 9 9
37 36 35 33 31 30 30 30 31 29 27 27 26 25 22 21 19 19 19 19 20 21 22 22 20 18 17 17 16 15 14 12 12 13 12 10 9 9 10 11 12 13 14 13 13 14 15 15 16 16 16 16 17 17 17 17 17 17 17 18 17 16 16 17 18 19 19 18 17 16 17 17 16 15 15 14 14 14 13 13 12 12 11 10 9
40 38 36 34 31 30 31 31 31 31 30 30 29 29 27 25 23 23 22 22 23 24 25 26 23 21 19 19 19 18 17 16 16 16 15 15 14 13 12 12 13 15 16 15 15 15 16 16 17 17 18 18 18 19 19 19 19 19 18 19 20 19 18 18 19 20 21 22 20 18 19 20 20 18 17 17 17 17 16 15 15 14 13 12 12
43 41 39 36 34 33 33 34 33 32 32 32 31 31 30 28 28 27 26 26 26 27 28 29 27 23 22 21 21 21 20 19 18 18 18 19 18 17 16 16 17 18 18 17 16 17 17 17 17 18 18 19 19 20 20 21 21 21 19 19 20 20 19 18 18 20 22 23 23 21 20 21 21 21 19 18 18 18 18 18 17 17 16 15 15
46 45 42 40 38 36 36 37 37 36 36 35 34 34 33 32 32 32 31 31 30 29 30 31 29 26 24 24 23 23 23 22 22 20 20 20 21 21 22 21 21 21 21 19 19 20 19 19 18 18 18 18 19 19 20 20 20 19 19 19 19 19 18 17 16 17 19 22 23 23 22 21 22 21 20 19 19 19 18 18 18 19 18 17 16
48 47 46 45 43 41 39 40 40 40 41 41 40 40 39 37 36 36 36 36 33 31 31 31 30 28 28 27 26 26 25 25 25 24 23 23 23 24 25 26 26 25 23 22 22 22 22 22 21 20 19 19 18 19 20 20 19 18 18 19 18 17 17 16 15 14 15 18 21 22 22 22 22 22 21 19 17 17 17 17 17 18 18 17 16
49 49 49 48 47 46 44 44 44 44 44 45 46 47 47 45 43 42 41 39 37 34 33 32 32 31 31 30 29 29 27 26 26 26 26 26 26 27 28 29 29 29 28 26 25 25 25 25 24 22 21 20 19 20 22 21 19 18 18 19 18 17 16 16 15 14 13 15 19 20 20 20 21 21 20 18 15 15 16 17 17 18 18 18 18
Wind_Direction
185 181 185 202 223 240 261 273 293 307 312 321 329 325 307 300 304 309 315 327 337 346 9 25 17 17 22 18 14 19 23 27 30 33 35 33 29 28 25 21 22 24 24 22 18 17 15 14 16 17 19 20 21 21 20 22 23 22 19 19 19 18 26 48 68 77 83 81 79 68 51 42 33 29 29 28 29 31 35 37 38 44 56 63 69
210 204 204 216 241 272 295 303 308 311 314 317 316 308 306 308 309 311 315 323 333 357 28 21 16 19 24 22 16 22 25 31 38 39 40 34 28 28 23 18 20 21 21 21 20 20 18 16 17 15 13 14 17 18 18 19 22 22 20 19 22 22 27 48 75 83 86 82 81 78 71 63 50 38 37 36 34 37 40 43 45 47 57 69 76
209 220 225 241 278 297 299 303 308 310 311 311 314 315 315 314 314 316 320 332 353 23 28 21 22 21 24 21 16 25 29 35 48 51 46 36 30 28 21 16 18 18 18 21 21 22 23 21 19 15 11 10 11 14 15 17 20 22 20 19 23 25 28 46 76 88 87 82 80 77 71 69 66 54 47 43 38 41 45 47 51 53 56 66 78
169 192 241 299 312 312 311 313 312 314 319 322 324 322 321 322 325 334 352 17 26 24 25 24 23 21 23 17 19 30 32 40 57 60 50 37 30 27 20 17 17 17 19 22 22 24 25 22 20 18 15 11 9 11 13 16 20 21 21 19 25 28 30 44 72 93 91 83 78 75 70 67 67 63 55 49 43 44 48 51 55 58 60 64 73
120 125 132 123 325 334 334 326 321 324 328 328 327 328 335 348 357 14 25 27 24 24 26 21 18 21 22 18 24 28 30 45 62 65 56 38 33 29 22 18 17 16 17 22 25 25 22 19 19 19 20 17 12 11 11 15 19 21 20 19 25 30 32 42 66 93 94 85 79 75 72 67 64 63 58 54 51 49 50 54 58 61 65 68 72
101 103 101 97 78 45 11 341 334 333 331 331 339 355 14 17 14 21 20 14 15 20 21 19 20 24 25 20 20 24 32 52 65 64 57 42 36 32 23 20 17 13 14 23 27 23 19 19 19 17 20 22 18 15 13 15 18 20 21 20 25 31 34 41 59 88 94 87 81 76 74 69 65 63 60 58 57 55 54 57 60 63 67 71 75
84 84 82 81 77 69 51 27 13 6 3 6 15 27 32 22 15 14 7 3 9 18 22 25 27 27 20 11 15 27 42 59 69 65 56 41 31 24 20 20 17 13 17 24 25 20 19 21 20 18 18 22 22 18 16 16 17 19 22 22 25 31 36 41 54 82 95 91 85 78 75 71 67 64 61 61 61 60 60 61 63 66 68 71 75
78 80 81 80 76 72 67 65 65 63 54 41 35 33 26 18 15 11 7 9 16 20 21 21 22 19 13 10 22 42 56 69 75 62 47 34 23 17 17 21 21 19 21 24 22 20 22 21 19 18 17 21 24 20 19 19 18 20 23 24 26 32 39 41 51 78 95 95 91 82 76 72 68 65 63 63 64 66 65 66 68 70 71 73 75
80 83 84 82 76 72 71 75 74 67 54 42 35 30 25 24 23 20 19 18 17 17 14 14 17 20 19 22 34 45 59 72 64 41 33 28 18 13 16 22 25 24 24 23 22 22 22 19 17 15 15 21 23 21 22 22 20 22 24 27 28 34 41 42 52 78 92 94 95 86 79 75 70 68 66 65 67 69 70 71 72 73 76 77 78
81 84 84 82 77 72 70 70 66 56 46 37 33 31 29 28 25 23 23 19 18 18 19 22 27 34 36 35 36 40 50 55 40 30 32 26 14 12 16 20 24 26 25 21 20 22 20 15 13 14 17 22 22 20 22 24 23 25 25 28 30 36 42 44 56 79 89 93 94 88 83 77 73 70 67 68 70 72 74 75 76 77 79 81 83
80 80 80 78 73 68 65 63 59 51 43 35 31 28 27 29 30 27 25 24 25 24 26 31 34 41 44 40 38 42 47 43 34 32 32 26 18 17 20 22 24 25 23 19 17 19 16 11 11 14 19 21 21 20 22 26 28 28 27 28 31 37 43 47 61 80 88 93 94 91 86 81 77 73 69 71 74 76 78 79 80 81 83 84 86
74 73 72 71 66 61 58 56 53 45 38 31 28 27 28 31 31 30 28 29 30 29 32 36 39 44 46 44 43 43 42 38 36 35 32 29 26 26 29 30 28 23 22 19 15 13 9 8 11 15 18 19 19 19 22 28 31 30 29 29 33 38 44 51 66 79 87 92 94 92 90 85 80 76 73 73 77 81 82 83 84 84 85 86 87
66 65 64 63 60 56 52 49 45 39 34 30 26 25 27 26 26 29 32 32 35 37 38 40 44 49 51 50 44 40 38 35 36 38 37 35 33 35 36 34 29 23 22 20 14 8 5 7 11 15 17 17 17 18 23 30 33 32 31 32 35 39 45 56 69 78 84 91 95 93 90 87 84 79 77 77 80 84 86 87 88 88 88 88 89
62 59 56 56 55 52 48 43 40 38 34 31 27 24 23 23 23 27 32 36 41 44 45 44 47 51 53 50 45 42 40 36 35 37 36 36 38 40 37 29 26 24 21 19 13 7 5 7 10 12 15 16 16 19 26 31 34 35 33 35 39 42 48 59 71 77 81 87 94 95 91 88 88 85 83 83 83 86 88 90 91 91 91 91 91
57 53 52 51 50 47 43 41 39 37 35 32 29 27 26 25 25 27 33 38 42 46 48 48 48 50 51 48 46 48 42 36 36 34 30 30 33 36 32 27 28 24 20 16 11 7 8 9 10 12 14 17 19 24 29 33 36 37 37 38 42 46 51 62 72 75 76 82 90 98 97 92 90 91 90 88 87 88 89 90 92 93 93 92 92
55 53 53 53 52 49 46 43 39 37 35 33 30 30 30 30 30 31 36 39 42 44 45 48 49 49 50 46 46 47 38 33 36 32 26 26 27 28 32 35 30 25 21 16 9 7 10 14 15 17 19 20 24 28 32 36 38 39 40 42 45 50 55 62 69 72 72 76 85 96 103 98 94 95 95 94 91 91 92 91 91 92 92 92 92
60 59 58 56 55 53 51 47 43 39 37 35 33 32 32 33 35 36 39 40 41 41 42 46 48 46 47 46 43 42 34 30 34 32 28 31 31 28 33 36 32 26 21 17 14 12 16 21 22 25 26 27 30 33 35 39 41 42 44 47 50 53 58 62 66 68 69 72 80 93 105 105 100 98 99 98 96 95 95 95 94 93 93 93 93
63 62 60 59 57 55 54 52 49 45 41 39 37 36 35 36 38 40 41 41 41 40 39 42 45 44 46 44 40 37 32 33 40 42 44 47 43 37 40 41 36 30 20 18 21 21 24 28 30 32 34 34 36 38 40 41 43 46 49 52 55 57 60 62 64 66 67 69 77 89 103 111 108 102 101 101 99 98 98 98 98 97 96 96 96
64 63 62 60 58 57 57 55 53 49 46 43 41 40 40 39 39 41 45 45 43 41 41 42 42 43 47 50 51 51 50 53 55 56 55 51 44 40 45 47 42 35 27 24 26 28 32 35 36 38 39 39 41 42 43 44 46 50 54 57 59 61 62 64 66 67 67 70 75 85 98 110 114 109 105 103 101 99 99 100 101 100 100 100 100
63 63 63 62 60 59 57 55 52 51 49 48 47 45 45 43 42 44 47 50 48 46 45 46 44 45 51 57 60 60 62 66 68 65 56 47 42 41 43 46 44 40 39 37 35 37 38 40 42 43 43 44 46 47 48 48 50 54 57 60 62 63 64 66 68 69 70 72 75 82 92 104 115 115 109 106 103 101 100 100 100 101 102 102 102
61 62 63 63 61 59 57 55 53 53 52 51 50 49 49 47 46 46 49 52 54 54 53 53 53 55 59 64 66 66 68 72 71 65 56 45 44 47 47 47 45 42 47 50 50 50 51 50 51 51 51 51 51 51 52 52 54 57 60 63 64 66 66 67 69 71 72 74 76 80 86 95 107 115 114 109 105 102 99 98 98 99 100 101 101
60 61 63 63 62 61 59 59 58 57 55 54 52 51 51 50 49 48 49 52 55 58 60 60 62 65 68 70 73 74 73 72 68 64 59 48 43 47 53 57 57 52 54 56 57 58 59 58 58 58 57 57 56 56 57 57 57 60 63 65 66 68 69 69 70 72 73 75 77 79 82 87 95 105 112 112 109 105 101 99 98 98 98 98 98
61 61 62 63 63 63 62 61 61 60 58 57 55 54 53 52 51 50 50 51 54 57 60 63 65 70 74 76 76 75 73 69 65 62 60 54 45 43 50 60 66 66 64 63 63 63 64 63 64 64 63 62 62 62 62 62 62 63 64 66 67 69 70 71 72 73 74 76 77 79 80 83 87 93 99 104 104 103 101 100 101 101 99 99 98
60 61 61 62 62 63 63 62 62 61 61 60 58 56 55 54 53 52 51 51 53 56 58 60 65 70 74 75 74 72 70 67 64 61 60 59 53 49 53 61 67 70 71 70 69 68 68 68 68 68 67 67 66 66 66 65 65 65 65 66 67 68 70 71 73 73 74 76 77 79 80 82 83 86 89 92 94 95 95 96 99 101 101 101 101
54 59 61 61 61 61 62 63 63 62 62 62 60 57 56 55 54 54 53 52 53 57 60 61 64 67 69 69 69 67 67 67 66 65 65 65 62 62 65 68 73 77 77 74 71 70 71 72 72 71 71 70 70 69 68 67 67 67 66 66 67 67 69 70 71 72 73 75 76 78 79 81 82 83 85 86 87 88 89 90 92 95 97 100 102
48 52 57 60 60 59 61 62 63 63 61 61 61 58 56 55 55 55 55 54 54 56 60 62 65 67 68 68 68 67 68 71 72 73 73 73 73 75 78 81 84 85 82 78 76 74 73 74 74 74 74 73 72 71 70 69 69 68 68 67 67 67 67 68 69 70 71 72 74 76 77 78 79 80 81 82 83 83 84 85 86 88 91 93 97
44 46 50 55 59 59 59 61 62 62 60 60 60 59 57 55 55 55 54 55 55 56 60 63 67 71 72 71 71 74 77 78 78 77 76 77 79 82 84 86 88 87 84 82 81 77 75 76 75 75 74 74 74 73 72 71 71 70 70 69 69 68 68 68 68 69 69 70 71 72 74 75 76 77 77 78 79 80 80 81 83 84 86 88 91
40 44 45 47 51 54 56 57 57 56 56 56 57 57 57 55 55 55 55 56 56 58 62 66 71 76 77 76 77 81 84 83 81 81 80 80 82 84 85 85 85 85 84 83 81 77 77 77 76 75 75 75 75 75 74 73 73 72 72 72 71 70 70 70 69 69 69 69 69 70 70 71 73 73 74 75 76 77 78 78 79 81 83 85 87
37 41 42 42 43 45 48 51 51 51 53 55 55 55 56 56 56 56 57 57 58 59 64 69 74 78 80 79 80 84 87 86 84 83 82 81 82 83 83 82 81 81 82 82 80 78 78 80 78 76 77 77 76 75 75 75 75 74 74 74 73 72 72 71 71 71 71 70 70 70 70 70 71 71 71 72 73 74 75 75 76 78 79 80 82
37 39 40 41 41 41 42 44 45 48 51 54 56 55 54 56 56 57 57 58 59 61 65 70 73 77 82 84 85 88 90 89 86 83 80 78 78 79 80 79 80 82 83 84 82 80 80 82 80 78 78 78 77 77 77 76 76 76 76 75 75 74 74 73 73 73 73 72 72 71 70 70 70 71 71 71 72 72 73 73 74 75 76 77 78
35 37 38 38 40 40 41 40 41 43 45 49 52 54 53 53 54 55 57 58 60 62 67 73 78 81 84 88 91 91 91 90 85 80 74 72 72 76 77 77 80 85 86 87 86 85 84 84 83 80 79 79 78 78 78 78 78 78 77 77 76 76 75 75 74 74 74 74 74 73 73 72 71 71 71 71 71 72 72 72 72 73 74 75 76
30 33 34 34 36 38 39 40 40 41 42 43 45 48 50 52 52 52 53 55 57 61 67 75 83 87 89 92 93 92 92 89 81 73 68 68 73 77 74 73 80 85 85 86 88 89 88 87 84 82 82 82 81 80 80 80 79 79 78 78 77 77 76 76 75 75 75 75 75 75 75 74 74 73 72 72 71 72 72 72 72 72 72 73 74
24 28 28 28 30 31 34 38 40 40 40 41 42 42 45 50 53 53 52 51 52 55 61 69 79 87 93 95 95 95 92 84 71 67 72 77 81 80 73 71 78 82 82 84 88 89 89 87 85 84 84 84 84 82 81 81 80 79 78 78 78 77 77 76 76 75 74 74 74 74 74 75 75 74 74 73 73 72 72 72 72 72 72 72 72
6 18 22 20 19 21 25 31 37 38 38 39 40 40 41 44 49 53 55 55 53 51 52 57 64 72 81 88 92 93 87 76 69 74 80 83 84 81 75 73 77 80 82 85 87 88 88 87 86 85 83 83 83 83 81 81 79 77 76 76 76 76 76 75 75 75 74 73 73 72 72 72 73 73 73 73 73 73 73 73 73 72 72 71 71
339 352 7 11 9 10 13 18 27 31 32 34 36 38 39 39 42 46 53 58 59 56 52 49 50 54 60 66 73 77 76 76 78 79 77 77 80 80 78 77 79 83 87 88 87 87 87 87 86 85 82 81 80 79 78 77 76 74 73 72 71 71 72 72 73 73 72 72 72 71 70 70 69 69 69 70 70 71 72 73 73 73 72 72 72
315 323 334 348 358 2 1 4 12 19 22 24 26 30 34 37 39 41 45 52 59 60 58 53 48 46 48 50 53 58 64 75 82 80 74 73 78 81 80 81 85 90 93 92 89 88 86 85 85 84 82 80 78 76 74 73 71 70 71 69 67 66 66 67 69 69 70 69 69 69 68 68 67 66 66 66 66 66 67 68 69 70 71 71 72
289 299 305 314 331 347 350 350 355 1 6 11 14 17 22 28 34 37 40 43 49 55 57 57 53 48 46 47 47 49 53 61 67 70 72 74 81 86 84 86 94 98 98 97 95 93 88 86 85 84 82 80 77 74 72 68 66 67 68 66 64 62 61 62 64 65 65 65 64 64 64 64 64 63 63 62 62 63 63 64 64 65 66 68 69
272 280 287 293 305 319 329 333 336 341 348 354 360 4 7 13 21 28 33 37 40 45 49 51 51 49 46 45 45 46 48 46 44 48 58 73 92 101 101 105 112 114 111 108 106 102 97 91 87 84 80 76 72 69 66 64 63 63 63 61 60 59 59 60 61 61 60 59 59 58 58 58 58 58 58 58 58 58 58 59 60 61 63 64 65
265 272 278 282 289 298 306 312 316 323 331 337 341 344 350 358 5 12 19 26 33 39 43 45 45 42 37 38 38 38 41 43 41 32 27 47 91 116 125 128 131 133 131 127 122 115 106 98 89 81 74 68 64 60 57 56 55 56 55 54 54 53 53 53 53 52 52 51 51 51 51 50 50 50 50 51 51 52 52 53 54 55 57 59 61
267 271 275 278 280 284 290 297 301 306 312 320 327 330 334 340 347 352 357 5 17 24 31 36 39 37 34 30 26 20 11 8 11 360 342 341 337 187 175 167 161 161 159 155 147 136 124 110 98 79 65 57 53 48 44 43 43 43 43 41 41 42 42 42 42 42 42 41 41 40 41 41 40 40 40 41 43 44 45 46 47 49 50 52 54
270 274 276 278 279 279 281 286 288 290 295 303 310 317 320 323 328 333 337 343 352 358 4 12 18 24 24 21 18 8 344 326 319 305 290 286 279 263 248 234 220 210 204 197 188 180 171 159 139 97 55 37 29 24 23 22 21 22 21 22 23 24 25 27 29 29 29 29 28 28 27 27 28 28 29 29 31 33 35 37 39 41 43 45 47
267 273 277 279 280 279 278 278 279 282 285 288 294 303 308 310 312 315 319 325 331 334 338 343 346 346 346 353 4 360 344 329 323 313 293 279 271 264 263 260 257 253 248 243 239 236 235 237 242 253 269 292 314 332 344 351 355 358 358 359 1 2 3 5 7 8 7 8 10 11 11 12 14 15 16 17 18 20 22 25 27 29 32 36 38
268 271 274 275 275 274 274 276 278 278 278 280 286 296 301 304 303 301 302 308 311 314 319 320 322 325 326 331 346 352 345 335 327 321 307 292 282 275 271 268 268 269 267 265 263 262 262 260 259 261 264 268 275 283 292 302 312 321 328 333 338 340 341 341 343 344 344 345 348 351 353 357 360 1 2 5 7 7 9 11 13 14 16 18 21
269 271 272 271 268 269 272 274 277 276 275 275 278 284 291 296 298 294 292 292 295 299 302 301 304 312 317 321 329 335 334 326 320 324 318 303 295 292 288 282 276 272 269 268 267 267 267 267 265 267 270 272 274 276 280 285 290 295 301 306 312 317 319 321 323 325 326 326 327 328 331 337 342 344 347 350 353 355 356 357 357 359 360 1 2
267 270 272 271 268 269 271 270 271 273 273 272 272 276 282 288 293 291 288 286 284 285 288 289 294 299 303 311 320 325 327 321 314 322 325 313 302 304 302 294 286 281 275 269 266 266 266 267 269 271 273 275 278 280 281 283 286 289 293 296 299 302 304 306 307 309 311 312 312 313 315 318 322 325 328 330 334 337 340 341 342 343 342 343 344
264 266 269 271 269 269 268 267 268 271 270 269 270 271 274 280 285 286 284 281 274 273 279 285 289 291 294 301 308 312 316 314 309 314 318 309 299 301 302 294 290 290 287 280 274 270 268 268 272 275 276 276 277 281 283 284 285 286 289 292 294 294 294 295 297 299 300 301 301 302 305 307 310 311 314 316 318 322 324 325 326 326 327 328 329
262 261 264 267 266 264 263 264 268 271 270 267 267 267 269 273 278 281 282 280 273 271 275 282 284 286 289 293 296 298 302 304 306 309 309 301 294 292 292 292 292 292 289 285 282 278 273 272 275 279 280 280 279 281 282 283 284 285 285 287 289 290 290 290 291 293 295 297 297 296 296 300 303 305 305 308 310 312 314 314 313 312 313 314 314
262 260 258 259 259 258 259 261 264 268 269 268 267 267 268 270 274 278 279 277 272 270 272 276 279 280 281 284 286 289 293 295 297 300 303 302 296 290 288 292 294 292 289 288 287 282 277 275 276 277 279 282 283 285 285 286 288 289 288 286 286 287 288 288 289 290 292 295 297 296 294 295 298 301 301 302 303 303 304 306 305 304 303 304 305
261 259 255 254 254 255 257 259 261 264 267 268 268 268 269 270 271 274 275 273 271 269 269 272 275 275 276 279 281 284 287 289 290 291 294 296 294 289 286 290 292 290 287 288 288 284 280 277 274 272 274 277 282 286 287 289 292 295 294 291 289 289 290 290 288 288 289 291 294 297 297 296 296 298 299 300 299 297 296 297 298 297 297 297 297
256 257 255 253 253 253 255 257 260 263 265 267 268 268 270 271 270 270 271 271 270 268 266 268 270 272 273 275 278 280 282 283 285 286 286 286 286 285 285 287 289 288 285 285 285 284 282 279 274 270 268 270 274 279 282 285 291 295 295 293 292 293 293 293 292 289 286 286 289 293 295 296 296 296 297 298 296 294 294 294 293 291 290 289 289
251 254 255 254 254 254 254 255 257 260 262 265 267 269 271 271 269 267 267 268 268 267 266 266 267 268 268 269 272 275 278 279 280 281 282 282 281 280 281 283 285 285 285 285 285 284 283 280 275 269 266 265 267 270 272 276 282 288 290 291 295 297 296 295 296 295 288 283 284 288 289 290 291 293 294 293 290 288 290 291 290 287 285 283 283
Height
10976 10976 10977 10978 10978 10978 10978 10978 10978 10978 10978 10977 10977 10977 10977 10977 10976 10975 10974 10973 10973 10972 10971 10971 10970 10970 10969 10968 10967 10966 10965 10964 10963 10961 10960 10959 10958 10956 10955 10954 10952 10950 10948 10947 10945 10943 10941 10940 10937 10935 10933 10930 10927 10925 10923 10920 10918 10917 10915 10914 10912 10910 10908 10906 10905 10905 10905 10905 10905 10904 10902 10899 10897 10896 10890 10883 10876 10867 10857 10845 10831 10818 10805 10793 10783
10976 10976 10977 10977 10978 10978 10978 10978 10978 10977 10977 10977 10977 10977 10976 10976 10975 10974 10974 10973 10973 10972 10971 10971 10971 10970 10969 10968 10967 10966 10965 10964 10963 10961 10960 10959 10958 10957 10956 10954 10952 10951 10949 10947 10946 10944 10942 10940 10938 10936 10934 10931 10928 10925 10923 10920 10918 10916 10914 10913 10911 10909 10907 10906 10905 10905 10905 10905 10905 10904 10902 10901 10900 10898 10892 10885 10879 10871 10863 10853 10842 10831 10821 10810 10802
10975 10976 10976 10977 10977 10978 10978 10978 10978 10977 10977 10977 10977 10976 10975 10975 10974 10974 10973 10973 10972 10972 10972 10971 10970 10970 10969 10968 10967 10966 10965 10964 10963 10961 10961 10960 10958 10957 10956 10955 10953 10952 10950 10949 10947 10945 10943 10941 10939 10937 10934 10932 10929 10926 10923 10920 10918 10916 10914 10912 10910 10908 10907 10906 10905 10905 10905 10905 10905 10903 10902 10901 10900 10898 10894 10888 10882 10875 10868 10861 10852 10844 10836 10828 10821
10975 10975 10976 10976 10977 10977 10977 10977 10977 10977 10977 10976 10976 10975 10975 10974 10973 10973 10973 10972 10972 10972 10972 10971 10970 10969 10968 10967 10966 10966 10965 10964 10962 10961 10961 10960 10959 10958 10957 10955 10954 10953 10951 10950 10948 10946 10943 10941 10939 10937 10934 10932 10930 10927 10924 10921 10918 10916 10914 10912 10910 10908 10907 10906 10905 10905 10906 10905 10905 10903 10902 10900 10899 10897 10894 10890 10885 10879 10874 10868 10861 10856 10850 10845 10840
10975 10976 10976 10976 10977 10977 10977 10977 10977 10977 10977 10976 10975 10975 10974 10974 10973 10973 10973 10973 10973 10972 10972 10971 10970 10969 10968 10967 10967 10966 10965 10963 10962 10962 10961 10961 10960 10959 10957 10956 10955 10953 10952 10950 10948 10946 10944 10942 10939 10937 10934 10932 10930 10928 10925 10922 10919 10916 10914 10912 10910 10908 10906 10906 10905 10905 10906 10905 10905 10904 10902 10901 10899 10897 10894 10891 10887 10883 10879 10874 10870 10865 10862 10859 10856
10976 10976 10976 10976 10976 10976 10977 10977 10977 10977 10976 10976 10975 10975 10974 10974 10973 10973 10973 10973 10973 10972 10972 10971 10970 10969 10968 10967 10967 10966 10965 10963 10963 10962 10962 10961 10960 10959 10958 10957 10955 10954 10953 10951 10949 10947 10945 10942 10940 10937 10935 10932 10930 10928 10926 10923 10920 10917 10915 10912 10910 10908 10906 10906 10905 10905 10905 10906 10905 10904 10903 10901 10900 10898 10896 10893 10890 10887 10884 10880 10877 10874 10871 10869 10867
10976 10976 10976 10976 10977 10977 10977 10977 10977 10977 10976 10976 10976 10976 10975 10974 10974 10973 10973 10973 10973 10972 10972 10971 10970 10969 10968 10968 10967 10966 10965 10964 10963 10963 10962 10962 10960 10959 10958 10958 10956 10955 10953 10952 10950 10948 10946 10944 10941 10938 10935 10933 10930 10928 10926 10923 10921 10918 10916 10913 10911 10909 10907 10905 10905 10905 10905 10906 10906 10905 10904 10902 10901 10899 10897 10895 10893 10891 10888 10886 10883 10881 10879 10877 10876
10977 10977 10977 10977 10977 10978 10978 10978 10978 10978 10977 10977 10977 10976 10976 10975 10974 10974 10973 10973 10973 10972 10972 10971 10970 10969 10969 10968 10967 10966 10965 10964 10964 10963 10963 10962 10961 10960 10959 10959 10958 10956 10954 10952 10950 10949 10947 10945 10942 10939 10936 10933 10931 10929 10926 10924 10921 10919 10916 10914 10911 10909 10907 10905 10905 10905 10905 10906 10906 10906 10905 10904 10902 10901 10900 10898 10896 10894 10893 10891 10889 10887 10886 10884 10884
10979 10979 10979 10979 10979 10979 10979 10979 10979 10979 10978 10978 10977 10977 10976 10975 10974 10974 10974 10973 10973 10972 10972 10971 10970 10969 10969 10968 10967 10966 10965 10965 10964 10964 10964 10963 10962 10961 10960 10960 10959 10957 10955 10953 10951 10949 10947 10945 10942 10939 10937 10934 10932 10930 10927 10924 10922 10919 10917 10915 10912 10910 10908 10906 10905 10905 10905 10906 10907 10907 10906 10905 10904 10903 10902 10901 10899 10898 10896 10895 10894 10892 10891 10890 10890
10981 10981 10981 10981 10981 10981 10981 10980 10980 10980 10979 10978 10977 10977 10976 10975 10974 10974 10974 10973 10973 10972 10972 10971 10970 10970 10969 10968 10967 10966 10966 10966 10966 10965 10965 10964 10962 10962 10962 10961 10960 10958 10956 10954 10952 10950 10948 10946 10943 10940 10937 10935 10933 10931 10928 10925 10922 10920 10918 10915 10913 10911 10908 10906 10905 10905 10906 10907 10908 10908 10907 10907 10906 10905 10905 10903 10902 10901 10900 10899 10898 10897 10896 10895 10895
10984 10984 10983 10983 10982 10982 10982 10981 10981 10980 10979 10979 10978 10977 10976 10975 10975 10974 10974 10973 10973 10972 10971 10971 10971 10970 10969 10968 10968 10967 10967 10967 10967 10967 10966 10965 10963 10963 10963 10962 10960 10959 10957 10955 10953 10951 10949 10946 10944 10941 10938 10936 10933 10931 10929 10926 10923 10921 10918 10916 10914 10912 10909 10907 10906 10906 10907 10908 10908 10909 10909 10909 10908 10907 10907 10906 10905 10904 10903 10902 10902 10901 10900 10900 10900
10986 10986 10985 10984 10984 10983 10983 10982 10982 10981 10980 10980 10979 10978 10977 10976 10975 10974 10974 10973 10972 10972 10971 10971 10971 10970 10970 10969 10969 10969 10969 10968 10969 10968 10967 10966 10964 10964 10963 10962 10961 10959 10958 10956 10954 10952 10949 10947 10944 10942 10939 10936 10934 10932 10929 10926 10924 10921 10919 10917 10915 10913 10911 10908 10907 10907 10908 10909 10909 10910 10910 10911 10910 10909 10909 10908 10908 10907 10906 10905 10905 10904 10904 10904 10904
10988 10988 10987 10986 10986 10985 10985 10984 10983 10982 10981 10980 10979 10978 10977 10976 10975 10974 10974 10973 10972 10972 10971 10971 10971 10971 10970 10970 10970 10970 10970 10969 10969 10969 10968 10967 10966 10965 10964 10963 10961 10960 10959 10957 10955 10953 10951 10948 10945 10942 10940 10937 10935 10933 10930 10927 10924 10922 10920 10918 10916 10914 10912 10910 10909 10909 10909 10910 10910 10911 10912 10912 10912 10911 10911 10910 10910 10909 10909 10908 10908 10908 10907 10907 10907
10990 10990 10989 10988 10988 10987 10986 10985 10984 10983 10982 10981 10980 10979 10977 10976 10975 10974 10973 10973 10972 10972 10972 10972 10972 10971 10971 10971 10972 10972 10971 10971 10970 10970 10969 10968 10967 10966 10965 10963 10962 10960 10960 10959 10957 10954 10952 10949 10946 10943 10941 10938 10936 10934 10931 10928 10925 10922 10921 10919 10917 10916 10914 10912 10911 10911 10911 10911 10912 10912 10913 10914 10914 10914 10913 10912 10912 10912 10911 10911 10911 10910 10910 10910 10911
10992 10992 10991 10990 10990 10989 10988 10986 10985 10984 10982 10981 10980 10979 10978 10977 10976 10975 10974 10973 10973 10973 10972 10972 10972 10973 10973 10973 10973 10973 10972 10972 10971 10971 10970 10969 10968 10966 10965 10964 10963 10962 10961 10959 10957 10955 10952 10950 10947 10945 10942 10940 10938 10935 10932 10929 10926 10923 10922 10920 10919 10917 10916 10914 10913 10913 10913 10913 10913 10914 10914 10915 10916 10916 10915 10915 10914 10914 10914 10913 10913 10913 10913 10913 10913
10994 10993 10993 10992 10991 10990 10989 10988 10986 10985 10983 10982 10981 10980 10979 10977 10977 10976 10975 10974 10973 10973 10973 10973 10973 10974 10974 10974 10974 10974 10974 10973 10973 10972 10971 10970 10969 10967 10966 10965 10964 10964 10962 10960 10958 10956 10953 10951 10948 10946 10944 10942 10939 10936 10933 10930 10927 10925 10923 10922 10920 10919 10918 10916 10915 10914 10914 10914 10915 10915 10916 10917 10917 10917 10917 10917 10917 10916 10916 10916 10916 10916 10916 10916 10916
10996 10995 10995 10994 10993 10991 10990 10989 10988 10986 10985 10984 10982 10981 10980 10978 10977 10976 10976 10975 10974 10974 10974 10974 10975 10975 10975 10976 10976 10975 10975 10975 10974 10973 10972 10972 10970 10969 10967 10967 10966 10965 10963 10961 10960 10957 10954 10952 10949 10947 10945 10942 10940 10937 10934 10931 10929 10926 10924 10923 10922 10920 10919 10918 10917 10916 10916 10916 10916 10916 10917 10918 10919 10919 10919 10919 10919 10919 10919 10919 10918 10918 10918 10918 10918
10998 10997 10996 10995 10994 10993 10992 10991 10990 10988 10987 10985 10983 10982 10981 10979 10978 10977 10977 10976 10976 10976 10976 10976 10976 10976 10976 10977 10977 10977 10976 10976 10976 10975 10974 10974 10972 10970 10969 10969 10968 10967 10964 10963 10961 10959 10956 10953 10951 10948 10946 10943 10940 10938 10936 10933 10930 10928 10926 10924 10923 10922 10921 10920 10919 10918 10917 10917 10917 10917 10918 10919 10920 10921 10921 10921 10921 10921 10921 10921 10921 10921 10921 10921 10921
10999 10998 10997 10996 10995 10994 10994 10993 10991 10990 10988 10987 10985 10984 10982 10981 10980 10979 10978 10978 10978 10978 10977 10977 10977 10977 10977 10977 10978 10978 10978 10978 10977 10977 10976 10975 10974 10972 10971 10971 10970 10968 10967 10965 10964 10962 10959 10956 10953 10949 10946 10944 10942 10939 10937 10935 10932 10930 10928 10926 10925 10924 10923 10922 10921 10920 10919 10919 10918 10919 10919 10920 10922 10923 10923 10924 10924 10924 10924 10923 10923 10923 10923 10924 10924
11001 11000 10999 10998 10997 10996 10995 10994 10992 10991 10990 10988 10987 10986 10984 10983 10982 10981 10981 10980 10980 10979 10979 10979 10979 10978 10978 10979 10979 10979 10979 10979 10979 10979 10977 10976 10975 10974 10973 10972 10971 10970 10970 10968 10966 10964 10961 10958 10955 10951 10948 10946 10944 10941 10939 10937 10934 10932 10930 10928 10927 10926 10925 10924 10923 10921 10921 10920 10920 10920 10921 10922 10923 10924 10925 10926 10926 10926 10926 10926 10926 10926 10926 10926 10926
11003 11002 11001 11000 10999 10998 10996 10995 10994 10993 10991 10990 10989 10988 10987 10985 10984 10983 10983 10982 10981 10981 10981 10981 10981 10981 10980 10980 10980 10981 10981 10981 10981 10981 10979 10977 10976 10976 10976 10975 10974 10974 10973 10970 10968 10967 10963 10960 10957 10953 10951 10949 10946 10944 10942 10939 10937 10935 10933 10931 10930 10928 10927 10927 10925 10924 10923 10922 10922 10922 10922 10923 10924 10926 10927 10927 10928 10928 10928 10928 10927 10927 10927 10927 10928
11005 11004 11003 11002 11001 11000 10999 10997 10996 10995 10993 10992 10991 10990 10989 10987 10986 10986 10985 10984 10983 10983 10983 10983 10983 10983 10983 10982 10982 10983 10983 10983 10982 10982 10981 10979 10977 10977 10978 10978 10977 10976 10974 10972 10971 10969 10965 10962 10960 10957 10954 10952 10949 10947 10945 10942 10940 10938 10936 10934 10932 10931 10930 10929 10928 10926 10925 10925 10924 10924 10924 10925 10926 10927 10928 10929 10929 10929 10929 10929 10929 10929 10929 10929 10929
11008 11007 11006 11005 11003 11002 11001 11000 10998 10997 10995 10994 10993 10993 10991 10990 10989 10988 10987 10986 10986 10985 10985 10985 10985 10985 10985 10985 10985 10984 10984 10984 10984 10983 10982 10981 10980 10979 10979 10979 10979 10977 10976 10975 10974 10971 10968 10966 10963 10960 10958 10956 10953 10951 10948 10946 10944 10941 10939 10937 10935 10934 10933 10932 10931 10929 10929 10928 10927 10927 10927 10927 10928 10929 10930 10930 10931 10931 10931 10931 10931 10931 10931 10931 10931
11010 11009 11008 11007 11006 11005 11004 11002 11001 10999 10998 10997 10996 10995 10994 10993 10992 10990 10989 10989 10988 10987 10987 10987 10987 10987 10987 10987 10987 10986 10986 10986 10985 10985 10984 10983 10982 10981 10980 10980 10980 10979 10978 10978 10976 10974 10971 10969 10967 10965 10962 10960 10957 10955 10953 10950 10947 10945 10942 10940 10939 10937 10936 10935 10934 10933 10932 10931 10930 10930 10930 10930 10930 10931 10931 10932 10932 10932 10932 10932 10932 10932 10933 10933 10933
11013 11011 11010 11009 11009 11008 11006 11005 11003 11002 11000 10999 10998 10997 10996 10996 10994 10993 10992 10992 10991 10990 10989 10989 10989 10989 10989 10989 10988 10988 10987 10987 10987 10986 10985 10985 10984 10983 10983 10982 10982 10981 10981 10980 10978 10977 10975 10973 10971 10969 10967 10965 10962 10960 10957 10954 10952 10949 10947 10945 10943 10942 10940 10939 10938 10937 10936 10935 10934 10933 10933 10933 10933 10933 10934 10934 10934 10934 10934 10934 10934 10934 10934 10934 10934
11015 11014 11013 11012 11011 11010 11009 11008 11006 11004 11003 11002 11001 11000 10999 10998 10997 10996 10995 10995 10994 10993 10992 10991 10991 10991 10991 10990 10990 10989 10989 10989 10989 10988 10987 10986 10986 10985 10985 10985 10985 10985 10984 10982 10982 10981 10979 10978 10976 10974 10972 10969 10967 10965 10962 10960 10957 10954 10952 10950 10948 10947 10945 10944 10942 10941 10941 10940 10938 10937 10937 10937 10937 10937 10936 10936 10936 10936 10936 10935 10935 10935 10935 10936 10936
11018 11016 11015 11014 11013 11012 11012 11010 11009 11007 11006 11005 11004 11003 11002 11001 11000 10999 10999 10998 10997 10996 10995 10994 10993 10993 10993 10992 10992 10991 10991 10991 10991 10990 10989 10989 10989 10988 10988 10988 10988 10987 10987 10986 10985 10984 10982 10981 10979 10977 10976 10973 10971 10969 10967 10965 10962 10959 10957 10955 10954 10953 10952 10950 10948 10947 10946 10945 10943 10942 10942 10941 10941 10940 10940 10939 10939 10938 10938 10938 10938 10937 10937 10937 10938
11020 11019 11017 11016 11015 11015 11014 11013 11011 11010 11009 11007 11006 11006 11005 11004 11003 11002 11002 11001 11000 10999 10998 10997 10996 10996 10995 10995 10995 10994 10994 10994 10993 10993 10993 10992 10992 10992 10991 10991 10990 10990 10989 10988 10988 10986 10984 10983 10982 10981 10979 10977 10975 10973 10971 10969 10967 10964 10962 10961 10960 10959 10958 10956 10955 10954 10952 10951 10950 10948 10947 10947 10946 10945 10944 10944 10943 10942 10941 10941 10941 10940 10940 10940 10940
11022 11021 11020 11019 11018 11017 11016 11015 11014 11012 11011 11010 11009 11008 11008 11007 11006 11005 11004 11003 11003 11002 11001 11001 11000 10999 10998 10998 10998 10997 10997 10997 10996 10996 10996 10995 10995 10995 10994 10994 10993 10992 10992 10991 10990 10988 10987 10986 10985 10984 10983 10981 10979 10977 10976 10974 10971 10970 10968 10966 10965 10965 10964 10963 10961 10960 10958 10957 10956 10955 10954 10953 10952 10951 10950 10949 10948 10947 10946 10945 10945 10944 10944 10943 10943
11024 11023 11022 11021 11020 11019 11018 11017 11016 11014 11013 11012 11011 11011 11010 11009 11009 11008 11007 11006 11005 11005 11004 11004 11003 11002 11002 11001 11001 11000 11000 10999 10999 10999 10999 10998 10998 10998 10997 10997 10996 10995 10994 10994 10993 10992 10990 10989 10988 10988 10987 10985 10983 10981 10980 10978 10977 10975 10973 10972 10971 10971 10969 10968 10967 10966 10964 10962 10962 10961 10961 10960 10959 10958 10956 10955 10954 10952 10951 10950 10950 10949 10949 10948 10947
11025 11024 11023 11023 11022 11021 11021 11019 11018 11016 11015 11014 11014 11013 11012 11011 11011 11010 11009 11008 11008 11008 11007 11006 11006 11005 11005 11005 11004 11003 11003 11003 11002 11002 11002 11001 11000 11000 11000 10999 10999 10998 10997 10997 10996 10995 10993 10992 10992 10991 10990 10988 10987 10986 10984 10983 10982 10980 10978 10977 10976 10975 10974 10974 10973 10971 10969 10968 10967 10967 10966 10966 10965 10964 10963 10961 10960 10959 10958 10957 10956 10955 10955 10954 10953
11026 11025 11024 11024 11024 11023 11022 11021 11020 11019 11017 11016 11015 11014 11014 11013 11013 11012 11011 11011 11010 11010 11010 11009 11009 11008 11008 11008 11007 11006 11006 11006 11005 11005 11004 11004 11003 11003 11002 11002 11001 11001 11000 10999 10998 10997 10997 10995 10995 10994 10993 10992 10991 10990 10989 10988 10986 10985 10983 10982 10981 10980 10980 10979 10978 10976 10975 10973 10973 10972 10972 10971 10970 10969 10968 10967 10966 10965 10964 10963 10962 10962 10961 10961 10960
11027 11026 11025 11025 11025 11025 11024 11023 11022 11021 11019 11018 11017 11016 11016 11015 11015 11014 11014 11013 11013 11012 11012 11012 11011 11011 11011 11010 11010 11009 11009 11008 11008 11007 11007 11007 11006 11006 11005 11004 11004 11003 11002 11001 11000 11000 10999 10999 10998 10997 10997 10996 10995 10994 10993 10992 10991 10990 10988 10987 10986 10985 10984 10983 10982 10980 10980 10979 10978 10978 10978 10977 10976 10975 10974 10972 10971 10970 10969 10968 10968 10968 10967 10967 10966
11027 11026 11026 11026 11026 11025 11025 11024 11023 11022 11021 11019 11018 11017 11017 11016 11016 11016 11015 11015 11015 11014 11014 11014 11014 11013 11013 11012 11012 11011 11011 11010 11010 11009 11009 11009 11009 11008 11007 11006 11006 11005 11004 11004 11003 11002 11002 11002 11001 11000 11000 10999 10998 10997 10996 10996 10995 10994 10992 10991 10990 10989 10988 10987 10986 10985 10984 10984 10984 10984 10983 10982 10981 10980 10979 10978 10977 10976 10975 10974 10973 10973 10973 10972 10972
11027 11027 11027 11027 11027 11026 11026 11025 11024 11023 11022 11021 11020 11019 11018 11017 11017 11017 11017 11017 11016 11016 11016 11016 11015 11015 11015 11014 11014 11013 11012 11012 11011 11011 11011 11011 11011 11010 11009 11008 11008 11007 11007 11006 11005 11005 11005 11004 11004 11003 11003 11002 11001 11001 11000 10999 10998 10997 10996 10995 10994 10993 10992 10991 10990 10990 10989 10989 10989 10988 10988 10987 10986 10985 10984 10983 10982 10981 10980 10979 10978 10978 10977 10977 10976
11026 11027 11027 11027 11027 11027 11026 11025 11025 11024 11023 11022 11021 11020 11019 11019 11018 11018 11018 11018 11018 11018 11017 11017 11017 11017 11016 11016 11015 11015 11014 11014 11013 11013 11013 11013 11012 11012 11011 11011 11010 11010 11009 11008 11008 11008 11007 11006 11006 11006 11005 11005 11004 11003 11003 11002 11001 11000 10999 10998 10998 10997 10996 10996 10995 10994 10994 10993 10993 10992 10991 10991 10990 10989 10988 10987 10987 10986 10985 10984 10983 10983 10982 10982 10981
11026 11027 11027 11027 11027 11027 11026 11026 11025 11024 11023 11022 11022 11021 11020 11020 11020 11019 11019 11019 11019 11019 11019 11018 11018 11018 11018 11018 11017 11017 11016 11016 11016 11015 11015 11014 11014 11014 11013 11013 11012 11012 11011 11011 11011 11010 11009 11008 11008 11008 11007 11007 11006 11006 11005 11004 11003 11002 11002 11001 11001 11000 11000 10999 10999 10998 10998 10997 10996 10996 10995 10994 10993 10993 10992 10991 10990 10990 10989 10988 10988 10987 10987 10986 10986
11025 11026 11026 11027 11027 11027 11027 11026 11025 11024 11023 11023 11022 11022 11021 11021 11020 11020 11020 11020 11020 11020 11020 11020 11020 11019 11019 11019 11019 11019 11018 11018 11017 11017 11016 11016 11016 11015 11015 11015 11014 11014 11013 11013 11012 11012 11011 11010 11010 11010 11009 11009 11008 11007 11007 11006 11005 11005 11004 11004 11004 11003 11003 11002 11002 11001 11001 11000 10999 10999 10998 10997 10996 10996 10995 10994 10993 10993 10992 10992 10991 10991 10991 10990 10990
11025 11025 11026 11026 11026 11026 11026 11026 11025 11024 11023 11023 11022 11022 11022 11021 11021 11021 11021 11020 11020 11021 11021 11021 11021 11021 11020 11020 11020 11020 11020 11019 11019 11018 11018 11017 11017 11017 11016 11016 11015 11015 11015 11014 11014 11013 11012 11012 11012 11011 11011 11010 11010 11009 11008 11008 11007 11007 11007 11006 11006 11006 11005 11005 11004 11004 11003 11002 11002 11001 11000 11000 10999 10998 10998 10997 10996 10996 10995 10995 10994 10994 10994 10993 10993
11024 11024 11024 11025 11025 11025 11025 11025 11024 11024 11023 11023 11022 11022 11022 11022 11021 11021 11021 11021 11021 11021 11021 11021 11021 11021 11021 11021 11020 11020 11020 11020 11019 11019 11018 11018 11018 11018 11017 11017 11017 11016 11016 11015 11015 11014 11014 11013 11013 11013 11012 11012 11011 11011 11010 11010 11009 11009 11008 11008 11008 11007 11007 11006 11006 11005 11005 11004 11004 11003 11002 11001 11001 11000 11000 10999 10998 10998 10997 10997 10997 10996 10996 10996 10996
11023 11023 11024 11024 11024 11024 11024 11023 11023 11023 11022 11022 11022 11022 11022 11022 11022 11021 11021 11021 11020 11020 11020 11020 11020 11021 11021 11021 11020 11020 11020 11020 11020 11020 11019 11019 11018 11018 11018 11018 11017 11017 11016 11016 11016 11015 11015 11014 11014 11014 11013 11013 11013 11012 11012 11011 11011 11010 11010 11009 11009 11008 11008 11007 11007 11007 11006 11005 11005 11004 11004 11003 11002 11002 11001 11001 11000 11000 10999 10999 10998 10998 10998 10998 10998
11021 11022 11023 11023 11024 11023 11022 11021 11021 11021 11021 11021 11021 11021 11021 11021 11021 11021 11020 11020 11020 11019 11019 11019 11019 11019 11019 11020 11020 11021 11021 11021 11020 11021 11020 11020 11019 11019 11018 11018 11017 11017 11017 11017 11016 11016 11016 11015 11015 11015 11014 11014 11013 11013 11013 11012 11012 11011 11011 11010 11010 11009 11009 11008 11008 11007 11007 11006 11006 11005 11005 11004 11003 11003 11002 11002 11001 11001 11001 11000 11000 11000 10999 10999 10999
11019 11020 11020 11021 11022 11021 11020 11020 11020 11021 11020 11020 11020 11019 11019 11020 11020 11020 11020 11019 11019 11018 11018 11017 11017 11017 11018 11019 11020 11020 11021 11021 11021 11021 11021 11020 11019 11019 11019 11018 11018 11017 11017 11017 11017 11016 11016 11016 11015 11015 11014 11014 11013 11013 11013 11012 11012 11011 11011 11010 11010 11009 11009 11008 11008 11007 11007 11007 11006 11005 11005 11005 11004 11004 11003 11003 11002 11002 11002 11001 11001 11001 11000 11000 10999
11016 11017 11017 11018 11018 11018 11018 11018 11018 11019 11019 11018 11018 11018 11018 11018 11018 11018 11018 11018 11017 11017 11016 11015 11015 11015 11016 11017 11018 11019 11019 11019 11020 11020 11020 11020 11019 11019 11019 11018 11018 11018 11017 11017 11016 11016 11016 11015 11015 11014 11014 11013 11013 11013 11012 11012 11011 11011 11010 11010 11010 11009 11009 11008 11008 11007 11007 11006 11006 11005 11005 11005 11004 11004 11004 11003 11003 11003 11002 11002 11002 11001 11001 11000 11000
11013 11013 11014 11014 11014 11015 11016 11015 11015 11017 11017 11016 11016 11016 11016 11016 11017 11016 11016 11015 11014 11013 11013 11012 11013 11014 11014 11015 11016 11016 11017 11017 11018 11018 11019 11019 11019 11018 11018 11018 11018 11017 11017 11017 11016 11016 11015 11014 11014 11013 11013 11013 11012 11011 11011 11011 11010 11010 11010 11009 11009 11009 11008 11007 11007 11006 11006 11006 11005 11005 11004 11004 11004 11004 11003 11003 11003 11003 11002 11002 11002 11001 11001 11000 11000
11008 11008 11009 11010 11011 11012 11012 11012 11012 11013 11014 11013 11013 11013 11014 11014 11014 11014 11014 11013 11011 11010 11010 11010 11011 11012 11013 11013 11013 11014 11015 11015 11016 11016 11017 11017 11017 11017 11017 11016 11016 11016 11015 11015 11015 11015 11014 11013 11013 11012 11012 11011 11011 11010 11009 11009 11009 11009 11008 11008 11008 11008 11007 11007 11006 11005 11004 11004 11004 11004 11003 11003 11003 11003 11003 11002 11002 11002 11002 11001 11001 11001 11000 11000 10999
11003 11004 11005 11006 11008 11008 11009 11009 11009 11009 11010 11010 11010 11010 11010 11011 11011 11011 11011 11010 11008 11008 11008 11008 11009 11011 11011 11010 11011 11011 11012 11013 11013 11014 11014 11014 11014 11014 11014 11014 11014 11014 11013 11013 11013 11013 11013 11012 11012 11011 11010 11010 11009 11009 11008 11007 11007 11007 11007 11007 11006 11006 11006 11006 11005 11004 11003 11002 11002 11003 11002 11001 11001 11002 11002 11001 11001 11000 11000 11000 11000 10999 10999 10999 10998
10997 10998 11000 11002 11004 11004 11004 11005 11006 11006 11006 11006 11007 11007 11008 11008 11008 11008 11009 11008 11006 11006 11006 11005 11006 11008 11008 11008 11008 11009 11009 11010 11010 11011 11011 11011 11011 11012 11012 11012 11012 11011 11011 11011 11011 11011 11010 11010 11010 11010 11009 11008 11008 11007 11007 11006 11005 11005 11006 11005 11004 11004 11004 11004 11004 11003 11001 11000 11000 11000 11001 11000 11000 11000 11000 11000 10999 10999 10998 10998 10997 10997 10997 10997 10997
10990 10992 10994 10996 10998 11000 11000 11001 11001 11002 11002 11002 11003 11004 11004 11005 11006 11006 11005 11004 11004 11004 11003 11002 11003 11004 11005 11005 11005 11006 11006 11006 11007 11008 11008 11008 11008 11008 11009 11009 11009 11008 11008 11009 11009 11008 11008 11008 11007 11007 11007 11006 11006 11005 11005 11004 11003 11004 11004 11003 11003 11002 11002 11002 11002 11002 11000 10999 10998 10998 10998 10998 10998 10998 10998 10998 10998 10997 10996 10996 10995 10995 10995 10995 10995
10985 10986 10988 10990 10992 10994 10995 10995 10996 10997 10998 10998 10998 10999 11000 11001 11002 11002 11001 11000 11000 11000 11000 10999 11000 11001 11001 11002 11002 11002 11003 11003 11004 11004 11005 11005 11005 11005 11005 11005 11006 11006 11005 11006 11006 11006 11005 11005 11005 11004 11004 11004 11004 11003 11002 11001 11001 11001 11002 11001 11001 11000 11000 11000 11000 11000 10999 10998 10996 10996 10996 10996 10995 10995 10995 10996 10996 10995 10994 10994 10993 10992 10992 10992 10992
10981 10981 10982 10984 10986 10987 10989 10990 10991 10992 10993 10993 10993 10993 10994 10996 10997 10996 10996 10996 10995 10995 10995 10995 10996 10996 10997 10998 10998 10999 10999 11000 11000 11001 11001 11001 11001 11001 11002 11002 11002 11002 11003 11003 11003 11003 11003 11002 11002 11002 11001 11001 11001 11001 11000 10999 10999 10999 10999 10999 10999 10999 10999 10998 10998 10998 10998 10997 10996 10995 10995 10994 10994 10993 10992 10993 10994 10993 10992 10991 10990 10990 10989 10989 10989